GFSFLT2_con_mlcape_000.txt.gz
CAPE
0 0 0 0 0 0 0 0 0 0 0 0 0 1 5 0 12 104 155 191 255 265 340 701 1075 1229 1384 1161 1185 677 273 0
0 0 0 0 0 0 0 0 0 0 0 0 14 22 27 2 2 11 68 181 228 289 384 786 983 1292 1406 1129 1104 760 254 0
0 0 0 0 0 0 0 0 0 0 0 0 16 20 42 46 37 2 36 56 228 320 405 810 1065 1312 1473 1297 1210 894 285 0
0 0 0 0 0 0 0 0 0 0 0 0 3 15 33 56 51 23 1 56 122 240 311 664 990 1350 1466 1485 1350 1105 362 12
0 0 0 0 0 0 0 0 0 0 0 0 0 0 2 2 0 0 0 0 45 93 178 442 831 1241 1397 1518 1459 1194 557 211
0 0 0 0 0 0 0 0 0 0 0 0 0 0 0 0 0 0 0 0 18 90 124 328 730 1047 1324 1435 1478 1226 612 271
0 0 0 0 0 0 0 0 0 0 0 0 0 0 0 2 4 3 10 23 14 116 237 458 752 1022 1324 1409 1375 1099 639 381
0 0 0 0 0 0 0 0 0 0 0 0 0 0 7 12 14 0 24 98 64 191 473 730 893 1045 1124 1215 1250 914 578 417
0 0 0 0 0 0 0 0 0 0 0 1 2 23 17 6 0 0 1 3 194 709 786 1041 1196 1162 1039 1023 938 864 538 364
1 0 0 0 0 9 16 24 10 0 0 0 1 54 25 0 0 0 0 0 0 143 735 1151 1506 1367 903 599 718 650 431 368
8 2 0 7 41 41 36 24 51 47 24 27 38 24 14 0 0 0 0 0 0 36 236 458 1397 1470 876 525 579 575 358 306
9 1 3 30 112 92 82 64 59 95 17 25 32 40 31 5 0 0 51 68 59 166 357 663 1256 1154 931 643 473 442 313 342
20 3 0 71 172 65 89 99 37 11 43 91 104 112 60 66 158 183 181 128 233 321 300 610 1132 1058 913 589 597 383 347 251
46 62 67 29 192 202 68 26 14 3 7 2 0 2 3 0 0 1 19 319 453 502 723 1156 1132 1099 907 653 327 332 255 260
114 1 0 0 1 0 0 0 0 4 0 16 4 30 14 0 0 0 0 0 215 611 1023 1459 1046 712 565 235 305 215 184 207
0 0 0 0 0 0 0 0 0 0 0 0 5 16 5 1 77 418 434 155 432 992 933 1055 745 556 453 319 72 11 0 0
60 0 0 0 0 0 0 0 0 0 0 0 0 189 812 683 787 652 652 790 929 1154 986 720 454 222 31 0 0 0 0 0
117 14 0 0 0 0 0 0 0 0 0 0 0 708 673 506 951 907 946 839 737 599 359 58 3 0 0 0 0 0 0 0
25 0 0 0 0 0 0 0 0 0 0 0 0 0 1 1008 790 625 718 914 862 375 60 37 2 0 0 0 0 0 0 0

GFSFLT2_con_mlcape_006.txt.gz
CAPE
0 0 0 0 0 0 0 0 0 0 0 0 0 0 0 10 64 89 125 244 409 380 333 389 432 515 538 641 792 802 1058 1238
0 0 0 0 0 0 0 0 0 0 0 0 0 0 0 0 3 45 76 206 344 502 518 567 576 638 724 755 847 864 999 949
0 0 0 0 0 0 0 0 0 0 0 0 0 0 0 0 0 0 24 100 233 555 685 735 685 686 856 863 1084 1093 951 823
0 0 0 0 0 0 0 0 0 0 0 0 0 0 0 0 0 0 1 72 137 474 683 785 756 760 941 1030 1133 1265 1094 779
0 0 0 0 0 0 0 0 0 0 0 0 0 0 0 0 1 0 1 33 82 295 548 705 737 902 1054 1228 1157 1309 1235 673
0 0 0 0 0 0 0 0 0 0 0 0 0 0 0 0 0 0 1 28 74 130 313 473 548 734 1047 1275 1317 1306 1035 705
0 0 0 0 0 0 0 0 0 0 0 0 0 0 0 0 0 0 0 3 55 126 201 343 440 515 714 1006 1234 1245 980 725
0 0 0 0 0 0 0 0 0 0 0 0 0 0 0 0 0 0 4 15 27 77 184 244 278 341 557 817 1016 1254 1088 855
0 0 0 0 0 0 0 0 0 0 0 0 0 0 0 0 0 18 38 24 40 24 44 54 100 219 403 646 948 1232 1173 992
0 0 0 0 0 0 0 0 0 0 0 0 0 0 0 0 0 0 1 11 21 13 2 0 5 98 238 481 780 1110 1191 1177
0 0 0 0 0 0 0 4 5 0 0 0 0 0 0 0 0 0 0 20 47 66 76 10 19 167 320 508 773 1034 1156 1165
0 0 0 0 0 5 11 15 0 0 0 0 0 0 0 0 0 0 1 48 96 107 25 4 44 270 326 476 845 975 1070 1085
0 0 0 0 0 10 36 0 0 0 0 3 0 0 0 0 0 0 7 47 93 141 214 297 308 335 231 367 550 850 849 865
0 26 74 0 36 55 5 0 0 0 0 0 0 0 0 0 0 0 0 0 0 0 0 33 125 345 429 307 608 712 675 521
0 0 0 0 0 0 0 0 0 0 0 0 0 0 0 0 0 0 22 48 140 79 74 136 286 557 351 552 546 470 334 252
0 0 0 0 0 0 0 0 0 0 0 0 0 0 5 104 74 7 40 83 246 236 209 307 428 439 469 395 378 285 147 25
0 0 0 0 0 0 0 0 0 0 0 0 0 0 0 0 196 296 325 303 294 259 230 443 470 411 390 335 248 204 94 38
0 0 0 0 0 0 0 0 0 0 0 0 0 0 0 0 0 206 389 416 390 301 348 425 416 421 343 301 330 212 62 5
0 0 0 0 0 0 0 0 0 0 0 0 0 0 0 0 0 0 0 11 440 353 212 319 247 236 74 124 174 36 6 0

GFSFLT2_con_mlcape_009.txt.gz
CAPE
0 0 0 0 0 0 0 0 0 0 0 0 0 0 0 12 48 67 123 138 171 305 367 438 479 563 633 716 777 868 1038 1253
0 0 0 0 0 0 0 0 0 0 0 0 0 0 0 0 12 66 129 246 354 463 462 540 628 708 804 828 887 906 1118 1332
0 0 0 0 0 0 0 0 0 0 0 0 0 0 0 0 0 46 131 165 372 675 599 600 743 821 925 933 1023 1056 1102 1312
0 0 0 0 0 0 0 0 0 0 0 0 0 0 0 0 0 0 82 112 487 740 755 753 826 892 975 1090 1113 1188 1160 1324
0 0 0 0 0 0 0 0 0 0 0 0 0 0 0 0 0 0 6 86 390 679 897 939 977 1056 1103 1252 1289 1414 1526 1447
0 0 0 0 0 0 0 0 0 0 0 0 0 0 0 0 0 7 16 59 252 471 766 920 1070 1129 1176 1330 1470 1563 1621 1656
0 0 0 0 0 0 0 0 0 0 0 0 0 0 0 0 6 3 23 51 164 245 431 781 1073 1231 1283 1380 1527 1627 1756 1812
0 0 0 0 0 0 0 0 0 0 0 0 0 0 0 0 25 14 21 71 163 244 437 576 773 863 1083 1321 1559 1772 1841 1726
0 0 0 0 0 0 0 0 0 0 0 0 0 0 0 0 8 70 74 120 175 251 412 513 602 779 805 992 1255 1553 1662 1657
1 0 0 0 0 0 0 0 0 0 0 0 0 0 1 1 36 109 191 278 242 206 317 361 426 494 615 883 1045 1254 1519 1587
0 0 0 0 0 0 0 0 0 0 0 0 0 0 0 0 0 18 74 131 190 181 127 97 139 245 482 679 835 1048 1313 1537
1 0 0 0 0 0 0 0 0 0 0 0 0 0 37 0 0 9 68 150 246 217 150 117 150 238 265 294 435 632 1333 1598
122 42 0 0 0 4 0 0 0 0 0 0 2 40 3 8 77 179 210 382 515 386 264 274 317 414 292 481 574 1329 1602 1667
49 83 31 0 9 124 46 0 3 5 12 14 14 3 21 23 20 24 24 4 92 58 107 204 237 296 451 524 827 1170 1302 1382
0 2 0 0 0 0 78 45 47 54 33 12 56 103 81 66 80 127 262 241 408 356 300 340 421 510 242 456 744 923 1128 1064
0 0 0 0 0 0 0 0 0 27 9 7 16 79 203 241 240 244 414 402 329 301 371 389 553 564 611 622 788 818 859 784
6 0 0 0 0 0 0 0 0 0 0 0 0 0 103 281 359 394 416 375 403 340 277 319 551 613 672 675 647 718 655 480
2 0 0 0 0 0 0 0 0 0 0 0 0 0 0 0 0 0 60 507 549 478 465 364 461 534 549 533 499 502 393 210
0 0 0 0 0 0 0 0 0 0 0 0 0 0 0 0 0 0 0 0 24 501 414 481 509 540 504 468 433 366 357 137

GFSFLT2_con_mlcape_015.txt.gz
CAPE
0 0 0 0 0 0 1 25 30 24 16 12 21 64 48 18 6 10 131 376 189 114 130 314 527 1036 1327 1759 2394 2759 2260 3039
0 0 0 0 0 0 0 7 27 22 25 15 16 10 2 8 0 1 43 335 260 122 116 283 482 815 1298 1661 2290 2309 2298 2706
0 0 0 0 0 0 0 1 11 32 36 24 23 6 0 0 0 3 17 227 369 153 152 263 334 494 932 1293 1776 2136 2207 2301
0 0 0 0 0 0 0 0 0 15 30 18 0 1 1 9 6 20 7 84 309 296 253 277 353 322 544 820 998 1737 1857 2324
0 0 0 0 0 0 0 0 0 7 0 0 1 15 11 10 0 0 29 41 200 377 293 447 447 459 377 735 659 1019 1736 1977
0 0 0 0 0 0 0 0 0 0 14 28 10 2 2 0 0 0 0 220 120 401 548 643 817 820 708 638 584 845 1213 1344
0 0 0 0 0 0 0 0 0 0 7 14 23 26 2 0 0 0 0 68 481 635 1029 1361 1233 1411 1331 1076 1158 1066 1310 1446
0 0 0 0 0 0 0 0 0 0 0 0 3 4 11 0 0 0 0 2 560 764 975 1822 1743 1980 2056 1804 1872 1719 2036 1964
0 2 37 23 0 0 0 0 0 0 0 0 0 0 1 0 0 0 0 0 60 724 1080 1573 1820 2399 2323 2516 2281 2322 2429 3054
12 44 52 0 26 8 1 5 5 3 0 0 0 0 0 0 0 0 0 0 0 635 1099 1625 1866 1983 2153 2401 2752 2835 3089 2943
28 22 37 40 188 213 228 39 12 4 15 0 0 0 0 0 0 0 0 0 15 868 1107 1760 2061 2293 2480 2557 2847 3021 3146 3236
95 51 64 133 328 109 239 3 15 106 76 7 0 0 0 0 0 0 110 113 154 1054 1240 1951 2223 2154 2506 2506 2656 2820 2887 3047
66 79 64 484 155 130 81 107 708 567 471 223 47 0 0 166 0 13 252 206 1166 1384 1754 2325 2128 1990 2454 2374 2412 2292 2228 2443
58 59 67 291 268 212 499 620 722 708 590 479 331 0 369 612 625 651 623 859 1431 1593 1841 2053 1997 2200 2368 2063 2022 2122 2295 2540
140 114 378 208 297 417 528 787 824 819 801 738 500 669 784 1028 1246 1433 1480 1348 1425 1649 1811 1705 1788 1880 2069 2655 2564 2577 2679 2882
556 374 96 91 212 469 722 791 971 1080 964 935 1033 955 967 1002 1047 1222 1448 1529 1579 1670 1791 2135 2287 2512 3033 2796 2776 2801 3019 2701
606 169 112 19 55 164 163 251 525 466 565 1100 1135 1150 1035 1009 917 782 756 796 1001 1294 1620 1930 2206 2176 2267 2460 2636 2604 1871 1420
175 175 85 3 0 0 0 0 0 2 0 54 215 229 398 666 1029 961 810 803 817 1068 1464 1883 2072 2152 2233 2400 2243 1970 1683 1472
96 110 0 0 0 0 0 0 0 0 0 0 0 0 0 0 1 20 476 802 883 1058 1326 1638 1758 1831 1938 2111 2029 2021 1711 1571

GFSFLT2_con_mlcape_021.txt.gz
CAPE
0 0 0 0 0 0 0 0 0 0 0 0 1 42 79 31 19 12 0 229 115 64 138 419 589 1147 1354 2126 1908 1984 2189 2120
0 0 0 0 0 0 0 0 0 0 0 0 0 23 48 8 14 29 2 128 270 94 140 403 580 993 1409 2158 2121 2155 1896 2295
0 0 0 0 0 0 0 0 0 0 0 0 0 48 71 6 7 27 1 49 335 245 232 490 681 942 1369 1977 2272 2380 2322 2054
0 0 0 0 0 0 0 0 0 0 0 0 0 43 84 59 13 5 0 131 348 418 394 709 756 830 1308 2104 2345 2500 2602 2467
0 0 0 0 0 0 0 0 0 0 0 0 0 0 0 9 8 1 12 195 457 397 616 820 876 850 1262 1913 2393 2698 2797 2776
0 0 0 0 0 0 0 0 0 0 0 0 0 0 0 0 5 11 10 6 400 471 543 825 1029 1089 1110 1588 2292 2613 2912 2832
0 0 0 0 0 0 0 0 0 0 0 0 0 12 47 54 22 14 0 47 282 509 437 729 866 1023 1206 1419 1635 2451 2702 2843
0 0 0 0 0 0 0 0 0 0 0 0 0 0 83 63 75 17 0 261 299 603 514 462 615 813 1066 1378 1568 1753 2507 2611
0 0 0 0 0 0 0 0 0 0 0 0 0 0 19 203 84 2 9 108 346 420 718 573 636 748 952 1190 1486 1626 1851 2466
0 0 2 0 0 0 0 0 0 0 0 0 0 0 0 0 0 0 0 97 307 270 604 1164 838 813 931 1109 1366 1475 1505 1995
0 0 0 0 0 0 0 0 0 5 0 0 0 0 0 0 0 0 0 0 25 502 451 866 1540 1130 949 1026 1206 1262 1316 1441
0 0 0 0 0 0 108 5 265 114 76 45 15 0 8 325 235 81 1 0 0 10 178 740 1047 1759 1469 1152 1125 1197 1232 1505
0 0 0 0 0 222 118 106 496 444 443 322 104 238 204 121 59 119 252 4 0 0 0 283 774 1655 1948 1628 1368 1476 1618 1705
7 10 3 40 93 243 187 615 618 477 398 248 222 104 9 39 131 8 306 679 110 0 0 22 748 1596 2100 2487 2092 1853 2805 2589
30 356 410 739 742 814 1210 1049 1336 1042 1088 1011 1163 1273 1534 1714 1835 1740 1609 1980 1645 790 757 1259 1636 2099 2322 2968 3462 3229 2925 3490
14 173 1 48 68 1136 912 878 929 1050 1216 1112 886 1204 1406 1697 2034 2290 2531 2752 2949 2960 3149 3461 3367 3264 3345 3490 3532 3616 3635 3666
27 40 279 769 982 654 519 215 305 263 400 743 841 829 956 1168 1562 2047 2428 2834 3049 3166 3223 3401 3599 3714 3604 3562 3533 3392 3265 3028
62 3 0 13 20 29 35 30 18 34 30 4 26 49 243 421 642 1211 1856 1745 2093 3011 3243 3433 3452 3273 3145 3100 2963 2845 2474 1873
35 0 0 0 0 0 0 0 0 0 0 0 0 0 0 4 85 295 560 1468 1790 1796 2475 2912 2850 2886 2806 2631 2329 2052 1711 1509

GFSFLT2_con_mlcape_024.txt.gz
CAPE
0 0 0 0 0 0 0 0 0 0 0 0 0 0 0 12 16 0 0 0 0 53 102 129 231 567 810 871 838 1038 1040 990
0 0 0 0 0 0 0 0 0 0 0 0 0 0 0 4 17 3 3 1 13 0 85 181 198 665 893 1059 936 1069 1284 1225
0 0 0 0 0 0 0 0 0 0 0 0 0 0 0 0 25 40 66 60 21 15 59 128 257 754 1088 1275 1199 1362 1482 1468
0 0 0 0 0 0 0 0 0 0 0 0 0 0 0 0 35 73 130 42 91 97 37 102 369 790 1092 1575 1445 1530 1709 1713
0 0 0 0 0 0 0 0 0 0 0 0 0 0 0 14 3 0 1 2 50 168 29 115 356 642 1079 1600 1714 1811 1850 1833
0 0 0 0 0 0 0 0 0 0 0 0 0 0 0 0 0 4 13 14 17 103 96 242 413 606 1057 1344 1939 2000 2126 1880
0 0 0 0 0 0 0 0 0 0 0 0 0 0 0 0 0 34 15 4 5 148 222 434 580 656 941 1429 1940 2090 2256 2254
0 0 0 0 0 0 0 0 0 0 0 0 0 0 0 0 0 0 10 23 0 148 316 401 664 746 829 1306 2015 2264 2345 2325
0 0 0 0 0 0 0 0 0 0 0 0 0 0 0 0 0 0 0 0 3 158 251 539 779 864 871 1179 1921 2327 2318 2534
0 0 0 0 0 0 0 0 0 0 0 0 0 0 0 0 0 0 0 0 182 342 498 729 815 931 1068 1105 1547 2148 2268 2467
0 0 0 0 0 0 0 0 0 0 0 0 0 0 0 0 0 0 0 0 1 396 491 510 618 746 964 1203 1434 1718 2050 2274
0 0 0 0 0 0 0 0 4 0 0 0 0 0 0 1 0 0 0 0 0 194 799 852 590 666 793 983 1306 1518 1767 1812
0 2 0 0 0 5 0 4 189 53 5 0 0 0 3 24 2 4 0 0 8 0 113 396 972 827 753 806 935 1269 1540 1732
0 0 0 2 6 0 73 519 238 182 53 13 172 639 949 800 206 68 3 0 62 44 0 3 275 1029 768 827 858 1055 1277 1425
0 1 0 146 690 837 869 643 654 445 554 409 521 749 1107 1376 1717 1854 1456 1402 1243 137 8 0 84 753 837 1072 1041 1001 1155 1151
0 8 33 5 50 338 660 608 623 648 634 755 992 1447 1610 1739 1763 1848 2271 2490 2416 1618 857 230 271 330 984 1063 1211 1320 1442 1533
0 1 52 0 0 6 22 156 298 77 252 468 859 1036 1228 1462 1672 1981 2335 2608 2775 2901 2669 2631 2507 1247 1760 2113 1869 2198 2411 2708
3 7 0 0 0 0 0 0 0 22 63 14 199 402 414 648 832 1292 1571 1547 1353 1009 1094 1456 1536 2041 2856 2785 2620 2368 2311 2200
0 1 0 0 0 0 0 0 0 0 0 0 0 14 52 55 172 549 734 934 1153 889 409 546 0 1 734 2058 2280 2381 2116 1736

GFSFLT2_con_mlcape_030.txt.gz
CAPE
0 0 0 0 0 0 0 0 0 0 0 0 0 0 0 0 0 0 0 0 7 53 75 76 45 100 178 244 263 319 368 333
0 0 0 0 0 0 0 0 0 0 0 0 0 0 0 0 0 0 0 0 0 0 0 20 33 70 162 291 295 355 423 448
0 0 0 0 0 0 0 0 0 0 0 0 0 0 0 0 0 0 0 0 0 0 4 9 24 14 79 254 350 419 643 647
0 0 0 0 0 0 0 0 0 0 0 0 0 0 0 0 0 0 0 0 0 0 1 7 9 24 35 186 305 369 638 782
0 0 0 0 0 0 0 0 0 0 0 0 0 0 0 0 0 0 0 0 0 0 0 0 0 1 25 97 288 375 512 775
0 0 0 0 0 0 0 0 0 0 0 0 0 0 0 0 0 0 0 0 0 0 0 0 0 1 3 80 248 415 474 637
0 0 0 0 0 0 0 0 0 0 0 0 0 0 0 0 0 0 0 0 0 0 0 0 0 7 26 111 248 446 538 615
0 0 0 0 0 0 0 0 0 0 0 0 0 0 0 0 0 0 0 0 0 0 0 0 0 20 88 192 384 587 620 646
0 0 0 0 0 0 0 0 0 0 0 0 0 0 0 0 0 0 0 0 0 0 0 0 3 56 128 299 593 697 718 780
0 0 0 0 0 0 0 0 0 0 0 0 0 0 0 0 0 0 0 0 0 0 0 0 0 53 205 323 633 784 858 970
0 0 0 0 0 0 0 0 0 0 0 0 0 0 0 0 0 0 0 0 0 0 0 0 0 49 178 350 651 1015 1165 1247
0 0 0 0 0 0 0 0 0 0 0 0 0 0 0 0 0 0 0 0 0 0 0 0 2 79 160 337 608 872 1327 1405
0 0 0 0 0 0 0 0 0 0 0 0 0 0 0 0 0 0 0 0 0 0 0 0 0 57 206 362 595 866 1274 1617
0 0 0 0 0 0 0 0 0 0 0 0 0 0 0 0 0 0 0 42 69 0 0 0 7 308 458 559 697 943 1343 1579
0 0 0 0 0 0 0 0 0 0 0 0 0 0 0 60 532 780 845 929 1063 712 987 1301 0 157 476 408 643 838 1002 1403
0 0 0 0 0 0 0 1 0 1 0 183 5 441 749 1114 1336 1489 1754 2019 1853 1468 1325 1470 1594 1419 1217 1121 1007 660 686 959
1 0 21 11 0 0 23 32 5 13 136 143 571 766 949 1012 1010 894 674 472 457 372 152 1 0 0 0 134 790 1171 999 660
0 0 12 29 3 0 70 59 0 66 184 54 59 244 261 324 227 196 127 28 230 220 188 60 0 0 0 0 0 514 1066 1047
2 2 58 46 0 0 0 0 0 3 30 77 67 83 99 82 108 125 151 134 90 160 217 326 447 284 46 0 3 3 1 835

GFSFLT2_con_mlcape_033.txt.gz
CAPE
0 0 0 0 0 0 0 0 0 0 0 0 0 0 0 0 0 0 23 313 404 486 455 403 349 413 485 439 503 628 655 697
0 0 0 0 0 0 0 0 0 0 0 0 0 0 0 0 0 0 0 5 165 467 516 468 318 416 465 420 411 541 651 688
0 0 0 0 0 0 0 0 0 0 0 0 0 0 0 0 0 0 0 0 0 95 327 503 445 342 532 538 526 627 700 755
0 0 0 0 0 0 0 0 0 0 0 0 0 0 0 0 0 0 0 0 0 0 72 187 412 432 399 598 713 699 715 801
0 0 0 0 0 0 0 0 0 0 0 0 0 0 0 0 0 0 0 0 0 0 0 41 188 329 350 453 633 794 897 895
0 0 0 0 0 0 0 0 0 0 0 0 0 0 0 0 0 0 0 0 0 0 0 5 72 208 307 412 555 730 909 1003
0 0 0 0 0 0 0 0 0 0 0 0 0 0 0 0 0 0 0 0 0 0 0 0 32 167 236 346 547 678 896 986
0 0 0 0 0 0 0 0 0 0 0 0 0 0 0 0 0 0 0 0 0 0 0 0 3 107 206 300 419 725 804 796
0 0 0 0 0 0 0 0 0 0 0 0 0 0 0 0 0 0 0 0 0 0 0 0 0 27 157 302 482 664 781 911
0 0 0 0 0 0 0 0 0 0 0 0 0 0 0 0 0 0 0 0 0 0 0 0 0 2 166 457 500 625 857 996
0 0 0 0 0 0 0 0 0 0 0 0 0 0 0 0 0 0 0 0 0 0 0 0 0 0 131 455 697 853 944 1042
0 0 0 0 0 0 0 0 0 0 0 0 0 0 0 0 0 0 0 0 0 0 0 0 0 5 151 351 700 816 1013 1092
0 0 0 0 0 0 0 0 0 0 0 0 0 0 0 0 0 0 0 0 0 0 0 0 0 21 129 390 623 777 1345 1670
0 0 0 0 0 0 0 0 0 0 0 0 0 0 0 0 0 0 0 0 0 0 0 0 53 67 325 553 918 1244 1435 1690
0 0 0 0 0 0 0 0 0 0 0 0 0 0 0 0 88 448 764 700 1202 837 80 32 324 715 623 709 901 1097 1394 1624
1 0 0 0 0 0 13 0 8 19 2 0 0 59 3 656 963 1573 1530 1450 1884 1747 1125 629 660 867 1038 1134 979 1152 1333 1656
1 0 0 0 0 0 0 0 0 2 19 17 210 616 780 1133 1419 1221 800 385 150 54 5 7 5 33 154 854 1485 1261 1167 1232
0 0 0 0 0 4 42 1 0 0 10 32 226 583 817 740 488 463 515 464 337 172 31 0 0 0 0 0 370 1069 840 828
0 0 0 0 0 0 14 64 0 0 15 76 55 45 13 10 67 82 238 297 333 309 312 298 371 241 1 107 139 164 214 338

GFSFLT2_con_mlcape_036.txt.gz
CAPE
0 0 0 0 0 0 0 0 0 0 0 0 0 0 0 0 0 0 248 588 780 845 1001 1217 1295 1319 1312 1499 1764 1888 1817 2029
0 0 0 0 0 0 0 0 0 0 0 0 0 0 0 0 0 0 0 346 505 802 978 1129 1364 1451 1595 1649 1555 1490 1682 1874
0 0 0 0 0 0 0 0 0 0 0 0 0 0 0 0 0 0 0 105 394 463 650 860 1114 1393 1509 1722 1766 1775 1748 1817
0 0 0 0 0 0 0 0 0 0 0 0 0 0 0 0 0 0 0 0 46 130 318 637 920 1034 1107 1342 1596 1627 1737 2000
0 0 0 0 0 0 0 0 0 0 0 0 0 0 0 0 0 0 0 0 4 31 43 262 678 1008 979 1101 1258 1404 1685 1731
0 0 0 0 0 0 0 0 0 0 0 0 0 0 0 0 0 0 0 0 0 0 0 2 233 711 1122 930 1033 1186 1338 1562
0 0 0 0 0 0 0 0 0 0 0 0 0 0 0 0 0 0 0 0 0 0 3 277 295 632 1233 1058 949 1045 1421 1484
0 0 0 0 0 0 0 0 0 0 0 0 0 0 0 0 0 0 0 0 0 0 51 332 468 815 931 1192 991 1032 1441 1675
0 0 0 0 0 0 0 0 0 0 0 0 0 0 0 0 0 0 0 0 0 0 0 17 242 527 745 1093 1123 1197 1371 1783
0 0 0 0 0 0 0 0 0 0 0 0 0 0 0 0 0 0 0 0 0 0 0 0 0 0 162 671 1341 1330 1563 1792
0 0 0 0 0 0 0 0 0 0 0 0 0 0 0 0 0 0 0 0 0 0 0 0 0 0 0 382 1041 1424 1592 1753
0 0 0 0 0 0 0 0 0 0 0 0 0 0 0 0 0 0 0 0 0 0 0 0 0 1 157 346 804 1502 1628 1851
0 0 0 0 0 1 0 9 0 0 0 0 0 6 27 36 3 0 0 0 0 0 0 0 0 128 29 370 764 1355 1683 1770
0 0 0 0 0 0 0 0 0 0 0 0 0 0 0 7 112 101 4 0 0 14 0 49 737 714 596 823 1133 1621 1757 1932
0 0 0 0 0 0 0 0 0 0 0 0 0 0 0 0 285 450 3 0 509 84 226 548 1227 1016 1016 1520 1753 1968 2097 2355
0 0 0 0 0 0 0 0 0 0 0 0 0 0 0 94 805 393 818 1580 1691 1921 1368 1666 2033 2047 2025 2359 2233 2198 2331 2657
5 0 0 0 0 0 0 0 0 0 0 0 0 0 0 576 1126 1345 2209 2305 2490 2423 2037 2060 2248 2481 2529 2436 2289 2497 2668 2739
0 1 13 7 6 2 0 0 0 0 0 0 0 0 113 1095 1582 2080 1820 1337 1088 885 732 502 560 807 1068 1949 2693 2389 2300 2165
1 0 6 6 1 0 0 0 0 0 0 0 0 32 782 1114 1360 1515 1604 1608 1090 870 1013 1197 969 944 894 1077 1106 1226 1498 1763